When you browse on this site, cookies collect data to enhance your experience and personalize the content and advertising you see.
Visit our Privacy Policy to learn more. By continuing to use the site, you agree to this use of cookies and data.
  • In United Kingdom
  • List of Countries
  • For 7 days
  • Water Temperature
  • Weather Map
  • Weather Widgets
  • user-avatar
    Login

    Hourly Weather Yulara

    Today, 15 December, Sunday

    Time Temperature Precipitation Wind Pressure Humidity
    00:00 +27°C° 0 mm 5 mps 716 mmHg 13%
    01:00 +26°C° 0 mm 5 mps 715 mmHg 13%
    02:00 +25°C° 0 mm 4 mps 715 mmHg 13%
    03:00 +23°C° 0 mm 4 mps 715 mmHg 12%
    04:00 +23°C° 0 mm 4 mps 715 mmHg 12%
    05:00 +22°C° 0 mm 4 mps 715 mmHg 12%
    06:00 +22°C° 0 mm 4 mps 715 mmHg 12%
    07:00 +27°C° 0 mm 4 mps 716 mmHg 10%
    08:00 +32°C° 0 mm 5 mps 716 mmHg 8%
    09:00 +35°C° 0 mm 4 mps 717 mmHg 7%
    10:00 +37°C° 0 mm 3 mps 717 mmHg 7%
    11:00 +39°C° 0 mm 2 mps 716 mmHg 7%
    12:00 +37°C° 0 mm 0 mps 716 mmHg 7%
    13:00 +41°C° 0 mm 1 mps 715 mmHg 7%
    14:00 +41°C° 0 mm 1 mps 715 mmHg 8%
    15:00 +42°C° 0 mm 2 mps 714 mmHg 8%
    16:00 +42°C° 0 mm 2 mps 714 mmHg 8%
    17:00 +42°C° 0 mm 1 mps 714 mmHg 8%
    18:00 +41°C° 0 mm 1 mps 714 mmHg 8%
    19:00 +38°C° 0 mm 2 mps 714 mmHg 10%
    20:00 +35°C° 0 mm 2 mps 714 mmHg 11%
    21:00 +31°C° 0 mm 2 mps 714 mmHg 13%
    22:00 +30°C° 0 mm 3 mps 714 mmHg 12%
    23:00 +30°C° 0 mm 3 mps 714 mmHg 10%

    Tomorrow, 16 December, Monday

    Time Temperature Precipitation Wind Pressure Humidity
    00:00 +29°C° 0 mm 4 mps 714 mmHg 9%
    01:00 +28°C° 0 mm 3 mps 714 mmHg 10%
    02:00 +28°C° 0 mm 3 mps 714 mmHg 10%
    03:00 +27°C° 0 mm 3 mps 714 mmHg 11%
    04:00 +27°C° 0 mm 3 mps 714 mmHg 11%
    05:00 +27°C° 0 mm 3 mps 715 mmHg 11%
    06:00 +27°C° 0 mm 3 mps 715 mmHg 11%
    07:00 +32°C° 0 mm 4 mps 716 mmHg 9%
    08:00 +35°C° 0 mm 4 mps 716 mmHg 8%
    09:00 +39°C° 0 mm 5 mps 717 mmHg 6%
    10:00 +41°C° 0 mm 5 mps 716 mmHg 6%
    11:00 +43°C° 0 mm 5 mps 716 mmHg 6%
    12:00 +45°C° 0 mm 6 mps 716 mmHg 6%
    13:00 +46°C° 0 mm 5 mps 715 mmHg 6%
    14:00 +45°C° 0 mm 4 mps 714 mmHg 6%
    15:00 +45°C° 0 mm 3 mps 714 mmHg 6%
    16:00 +45°C° 0 mm 3 mps 714 mmHg 6%
    17:00 +44°C° 0 mm 3 mps 714 mmHg 7%
    18:00 +44°C° 0 mm 4 mps 714 mmHg 7%
    19:00 +41°C° 0 mm 4 mps 714 mmHg 10%
    20:00 +39°C° 0 mm 5 mps 715 mmHg 12%
    21:00 +35°C° 0 mm 5 mps 715 mmHg 15%
    22:00 +34°C° 0 mm 6 mps 715 mmHg 20%
    23:00 +34°C° 0 mm 8 mps 715 mmHg 25%

    Day after tomorrow, 17 December, Tuesday

    Time Temperature Precipitation Wind Pressure Humidity
    00:00 +33°C° 0 mm 9 mps 715 mmHg 30%
    01:00 +32°C° 0 mm 8 mps 715 mmHg 32%
    02:00 +30°C° 0 mm 7 mps 715 mmHg 34%
    03:00 +29°C° 0 mm 6 mps 715 mmHg 35%
    04:00 +29°C° 0 mm 6 mps 715 mmHg 35%
    05:00 +30°C° 0 mm 6 mps 715 mmHg 34%
    06:00 +30°C° 0 mm 7 mps 716 mmHg 33%
    07:00 +34°C° 0 mm 7 mps 716 mmHg 27%
    08:00 +36°C° 0 mm 7 mps 717 mmHg 20%
    09:00 +40°C° 0 mm 6 mps 717 mmHg 13%
    10:00 +41°C° 0 mm 5 mps 717 mmHg 11%
    11:00 +43°C° 0 mm 4 mps 716 mmHg 8%
    12:00 +44°C° 0 mm 3 mps 716 mmHg 6%
    13:00 +44°C° 0 mm 3 mps 715 mmHg 6%
    14:00 +45°C° 0 mm 2 mps 715 mmHg 6%
    15:00 +45°C° 0 mm 2 mps 714 mmHg 6%
    16:00 +45°C° 0 mm 2 mps 714 mmHg 6%
    17:00 +44°C° 0 mm 3 mps 714 mmHg 6%
    18:00 +44°C° 0 mm 3 mps 714 mmHg 6%
    19:00 +42°C° 0 mm 3 mps 715 mmHg 7%
    20:00 +39°C° 0 mm 3 mps 715 mmHg 8%
    21:00 +36°C° 0 mm 4 mps 715 mmHg 9%
    22:00 +35°C° 0 mm 5 mps 715 mmHg 15%
    23:00 +34°C° 0 mm 7 mps 715 mmHg 21%

    18 December, Wednesday

    Time Temperature Precipitation Wind Pressure Humidity
    00:00 +32°C° 0 mm 9 mps 715 mmHg 27%
    01:00 +32°C° 0 mm 8 mps 714 mmHg 28%
    02:00 +30°C° 0 mm 7 mps 714 mmHg 29%
    03:00 +29°C° 0 mm 6 mps 714 mmHg 30%
    04:00 +29°C° 0 mm 6 mps 714 mmHg 29%
    05:00 +29°C° 0 mm 6 mps 714 mmHg 28%
    06:00 +29°C° 0 mm 6 mps 715 mmHg 26%
    07:00 +34°C° 0 mm 7 mps 715 mmHg 22%
    08:00 +39°C° 0 mm 7 mps 715 mmHg 17%
    09:00 +43°C° 0 mm 8 mps 716 mmHg 12%
    10:00 +45°C° 0 mm 8 mps 716 mmHg 10%
    11:00 +48°C° 0 mm 8 mps 715 mmHg 9%
    12:00 +49°C° 0 mm 8 mps 715 mmHg 7%
    13:00 +50°C° 0 mm 7 mps 714 mmHg 7%
    14:00 +49°C° 0 mm 6 mps 714 mmHg 7%
    15:00 +49°C° 0 mm 5 mps 713 mmHg 6%
    16:00 +48°C° 0 mm 8 mps 713 mmHg 10%
    17:00 +44°C° 0 mm 12 mps 714 mmHg 13%
    18:00 +42°C° 0 mm 15 mps 714 mmHg 17%
    19:00 +39°C° 0 mm 12 mps 714 mmHg 19%
    20:00 +38°C° 0 mm 9 mps 715 mmHg 22%
    21:00 +35°C° 0 mm 5 mps 715 mmHg 24%
    22:00 +34°C° 0 mm 5 mps 715 mmHg 25%
    23:00 +34°C° 0 mm 4 mps 715 mmHg 26%

    19 December, Thursday

    Time Temperature Precipitation Wind Pressure Humidity
    00:00 +33°C° 0 mm 3 mps 714 mmHg 27%
    01:00 +31°C° 0 mm 3 mps 714 mmHg 28%
    02:00 +31°C° 0 mm 3 mps 714 mmHg 29%
    03:00 +30°C° 0 mm 3 mps 713 mmHg 30%
    04:00 +30°C° 0 mm 3 mps 713 mmHg 30%
    05:00 +30°C° 0 mm 3 mps 714 mmHg 31%
    06:00 +30°C° 0 mm 3 mps 714 mmHg 31%
    07:00 +34°C° 0 mm 2 mps 715 mmHg 26%
    08:00 +37°C° 0 mm 2 mps 715 mmHg 22%
    09:00 +40°C° 0 mm 2 mps 716 mmHg 17%
    10:00 +43°C° 0 mm 3 mps 715 mmHg 14%
    11:00 +45°C° 0 mm 3 mps 715 mmHg 11%
    12:00 +48°C° 0 mm 4 mps 715 mmHg 8%
    13:00 +48°C° 0 mm 4 mps 714 mmHg 8%
    14:00 +48°C° 0 mm 4 mps 713 mmHg 8%
    15:00 +49°C° 0 mm 5 mps 712 mmHg 7%
    16:00 +48°C° 0 mm 4 mps 712 mmHg 7%
    17:00 +48°C° 0 mm 4 mps 712 mmHg 8%
    18:00 +48°C° 0 mm 4 mps 712 mmHg 8%
    19:00 +44°C° 0.1 mm 4 mps 712 mmHg 10%
    20:00 +41°C° 0.1 mm 4 mps 713 mmHg 13%
    21:00 +38°C° 0.1 mm 3 mps 713 mmHg 16%
    22:00 +36°C° 0 mm 4 mps 713 mmHg 21%
    23:00 +34°C° 0 mm 5 mps 713 mmHg 27%

    20 December, Friday

    Time Temperature Precipitation Wind Pressure Humidity
    00:00 +33°C° 0 mm 6 mps 713 mmHg 32%
    01:00 +32°C° 0 mm 5 mps 713 mmHg 33%
    02:00 +30°C° 0 mm 4 mps 713 mmHg 33%
    03:00 +30°C° 0 mm 3 mps 712 mmHg 34%
    04:00 +30°C° 0 mm 3 mps 713 mmHg 34%
    05:00 +30°C° 0 mm 3 mps 713 mmHg 33%
    06:00 +30°C° 0 mm 3 mps 714 mmHg 33%
    07:00 +34°C° 0 mm 4 mps 714 mmHg 28%
    08:00 +37°C° 0 mm 4 mps 714 mmHg 23%
    09:00 +41°C° 0 mm 5 mps 715 mmHg 18%
    10:00 +42°C° 0 mm 5 mps 715 mmHg 17%
    11:00 +45°C° 0 mm 5 mps 714 mmHg 15%
    12:00 +45°C° 0 mm 4 mps 714 mmHg 13%
    13:00 +45°C° 0 mm 4 mps 713 mmHg 13%
    14:00 +45°C° 0 mm 4 mps 713 mmHg 13%
    15:00 +45°C° 0 mm 4 mps 712 mmHg 14%
    16:00 +44°C° 0.1 mm 6 mps 712 mmHg 16%
    17:00 +41°C° 0.1 mm 7 mps 712 mmHg 19%
    18:00 +40°C° 0.1 mm 9 mps 712 mmHg 21%
    19:00 +38°C° 0.4 mm 7 mps 712 mmHg 24%
    20:00 +35°C° 0.4 mm 6 mps 712 mmHg 28%
    21:00 +34°C° 0.4 mm 5 mps 713 mmHg 31%
    22:00 +33°C° 0.8 mm 5 mps 713 mmHg 34%
    23:00 +32°C° 0.8 mm 5 mps 713 mmHg 37%
    Show more